When you browse on this site, cookies collect data to enhance your experience and personalize the content and advertising you see.
Visit our Privacy Policy to learn more. By continuing to use the site, you agree to this use of cookies and data.
  • In Germany
  • List of Countries
  • For 7 days
  • Water Temperature
  • Weather Map
  • Weather Widgets
  • user-avatar
    Login

    Hourly Weather Salzburg

    Today, 17 November, Sunday

    Time Temperature Precipitation Wind Pressure Humidity
    00:00 -1°C° 0.9 mm 1 mps 620 mmHg 95%
    01:00 -3°C° 0 mm 2 mps 620 mmHg 96%
    02:00 -3°C° 1.8 mm 2 mps 619 mmHg 97%
    03:00 -3°C° 1.8 mm 2 mps 618 mmHg 97%
    04:00 0°C° 1.8 mm 1 mps 618 mmHg 98%
    05:00 -2°C° 1.1 mm 2 mps 618 mmHg 98%
    06:00 -2°C° 1.1 mm 2 mps 617 mmHg 98%
    07:00 -2°C° 1.1 mm 2 mps 617 mmHg 98%
    08:00 -1°C° 1.2 mm 2 mps 617 mmHg 98%
    09:00 -1°C° 1.2 mm 3 mps 617 mmHg 97%
    10:00 0°C° 1.2 mm 3 mps 617 mmHg 97%
    11:00 +1°C° 1.9 mm 2 mps 617 mmHg 96%
    12:00 +2°C° 1.9 mm 2 mps 616 mmHg 96%
    13:00 +2°C° 1.9 mm 2 mps 616 mmHg 95%
    14:00 +1°C° 3.4 mm 2 mps 615 mmHg 96%
    15:00 0°C° 3.4 mm 3 mps 615 mmHg 96%
    16:00 -1°C° 3.4 mm 3 mps 614 mmHg 97%
    17:00 -1°C° 1.7 mm 3 mps 615 mmHg 97%
    18:00 -1°C° 1.7 mm 3 mps 615 mmHg 97%
    19:00 -1°C° 1.7 mm 3 mps 615 mmHg 97%
    20:00 -1°C° 0.3 mm 3 mps 615 mmHg 96%
    21:00 -2°C° 0.3 mm 2 mps 616 mmHg 96%
    22:00 -2°C° 0.3 mm 2 mps 616 mmHg 96%
    23:00 -2°C° 0.1 mm 2 mps 616 mmHg 95%

    Tomorrow, 18 November, Monday

    Time Temperature Precipitation Wind Pressure Humidity
    00:00 -2°C° 0.1 mm 2 mps 616 mmHg 95%
    01:00 -3°C° 0.1 mm 2 mps 616 mmHg 94%
    02:00 -3°C° 0 mm 2 mps 616 mmHg 94%
    03:00 -3°C° 0 mm 2 mps 616 mmHg 94%
    04:00 -2°C° 0 mm 1 mps 616 mmHg 94%
    05:00 -2°C° 0 mm 1 mps 616 mmHg 94%
    06:00 -2°C° 0 mm 1 mps 617 mmHg 93%
    07:00 -2°C° 0 mm 1 mps 617 mmHg 93%
    08:00 -2°C° 0 mm 1 mps 618 mmHg 94%
    09:00 -1°C° 0 mm 1 mps 618 mmHg 94%
    10:00 -1°C° 0 mm 0 mps 619 mmHg 95%
    11:00 0°C° 0 mm 1 mps 619 mmHg 93%
    12:00 +1°C° 0 mm 1 mps 620 mmHg 92%
    13:00 +1°C° 0 mm 1 mps 620 mmHg 90%
    14:00 0°C° 0 mm 1 mps 620 mmHg 91%
    15:00 -1°C° 0 mm 1 mps 620 mmHg 92%
    16:00 -2°C° 0 mm 1 mps 620 mmHg 93%
    17:00 -2°C° 0 mm 1 mps 620 mmHg 93%
    18:00 -3°C° 0 mm 1 mps 620 mmHg 92%
    19:00 -4°C° 0 mm 1 mps 620 mmHg 92%
    20:00 -4°C° 0 mm 1 mps 620 mmHg 92%
    21:00 -4°C° 0 mm 1 mps 620 mmHg 91%
    22:00 -4°C° 0 mm 1 mps 620 mmHg 91%
    23:00 -4°C° 0 mm 1 mps 621 mmHg 91%

    Day after tomorrow, 19 November, Tuesday

    Time Temperature Precipitation Wind Pressure Humidity
    00:00 -4°C° 0 mm 1 mps 621 mmHg 91%
    01:00 -4°C° 0 mm 1 mps 621 mmHg 91%
    02:00 -4°C° 0 mm 1 mps 620 mmHg 91%
    03:00 -6°C° 0 mm 2 mps 620 mmHg 91%
    04:00 -6°C° 0 mm 2 mps 620 mmHg 91%
    05:00 -5°C° 0 mm 2 mps 620 mmHg 91%
    06:00 -5°C° 0 mm 2 mps 620 mmHg 92%
    07:00 -5°C° 0 mm 2 mps 620 mmHg 92%
    08:00 -4°C° 0.1 mm 2 mps 621 mmHg 92%
    09:00 0°C° 0.1 mm 1 mps 621 mmHg 92%
    10:00 +1°C° 0.1 mm 1 mps 622 mmHg 92%
    11:00 +1°C° 0.3 mm 1 mps 622 mmHg 92%
    12:00 +1°C° 0.3 mm 1 mps 622 mmHg 92%
    13:00 +1°C° 0.3 mm 1 mps 622 mmHg 93%
    14:00 +1°C° 0.2 mm 1 mps 622 mmHg 94%
    15:00 0°C° 0.2 mm 1 mps 622 mmHg 96%
    16:00 0°C° 0.2 mm 1 mps 622 mmHg 98%
    17:00 -1°C° 0.2 mm 1 mps 622 mmHg 98%
    18:00 -1°C° 0.2 mm 1 mps 622 mmHg 98%
    19:00 -2°C° 0.2 mm 1 mps 622 mmHg 98%
    20:00 -2°C° 0.3 mm 1 mps 622 mmHg 98%
    21:00 -2°C° 0.3 mm 1 mps 622 mmHg 98%
    22:00 -2°C° 0.3 mm 1 mps 622 mmHg 98%
    23:00 -3°C° 0.3 mm 1 mps 622 mmHg 98%

    20 November, Wednesday

    Time Temperature Precipitation Wind Pressure Humidity
    00:00 -4°C° 0.3 mm 0 mps 622 mmHg 98%
    01:00 -4°C° 0.3 mm 0 mps 622 mmHg 97%
    02:00 -4°C° 0 mm 0 mps 622 mmHg 97%
    03:00 -5°C° 0 mm 0 mps 622 mmHg 96%
    04:00 -4°C° 0 mm 1 mps 622 mmHg 96%
    05:00 -4°C° 0 mm 1 mps 622 mmHg 96%
    06:00 -4°C° 0 mm 1 mps 622 mmHg 95%
    07:00 -3°C° 0 mm 1 mps 622 mmHg 95%
    08:00 -2°C° 0 mm 1 mps 623 mmHg 94%
    09:00 -1°C° 0 mm 1 mps 624 mmHg 94%
    10:00 +1°C° 0 mm 1 mps 624 mmHg 93%
    11:00 +1°C° 0 mm 1 mps 624 mmHg 93%
    12:00 +2°C° 0 mm 1 mps 624 mmHg 92%
    13:00 +3°C° 0 mm 1 mps 624 mmHg 92%
    14:00 +2°C° 0 mm 1 mps 624 mmHg 94%
    15:00 +1°C° 0 mm 1 mps 624 mmHg 95%
    16:00 +1°C° 0 mm 1 mps 623 mmHg 97%
    17:00 -2°C° 0 mm 2 mps 623 mmHg 96%
    18:00 -2°C° 0 mm 2 mps 623 mmHg 95%
    19:00 -3°C° 0 mm 2 mps 623 mmHg 94%
    20:00 -3°C° 0 mm 2 mps 623 mmHg 93%
    21:00 -3°C° 0 mm 2 mps 623 mmHg 92%
    22:00 -3°C° 0 mm 2 mps 623 mmHg 91%
    23:00 -3°C° 0 mm 2 mps 623 mmHg 91%

    21 November, Thursday

    Time Temperature Precipitation Wind Pressure Humidity
    00:00 -4°C° 0 mm 3 mps 622 mmHg 91%
    01:00 -4°C° 0 mm 3 mps 622 mmHg 91%
    02:00 -5°C° 0 mm 3 mps 622 mmHg 91%
    03:00 -5°C° 0 mm 3 mps 621 mmHg 91%
    04:00 -4°C° 0 mm 2 mps 621 mmHg 90%
    05:00 -4°C° 0 mm 2 mps 621 mmHg 91%
    06:00 -4°C° 0 mm 2 mps 621 mmHg 91%
    07:00 -4°C° 0 mm 2 mps 621 mmHg 91%
    08:00 -3°C° 0 mm 2 mps 622 mmHg 91%
    09:00 -2°C° 0 mm 2 mps 622 mmHg 90%
    10:00 -1°C° 0 mm 2 mps 622 mmHg 89%
    11:00 -1°C° 0 mm 2 mps 622 mmHg 89%
    12:00 +1°C° 0 mm 2 mps 622 mmHg 88%
    13:00 +1°C° 0 mm 2 mps 622 mmHg 87%
    14:00 -1°C° 0 mm 2 mps 622 mmHg 88%
    15:00 -2°C° 0 mm 2 mps 621 mmHg 89%
    16:00 -3°C° 0 mm 2 mps 621 mmHg 90%
    17:00 -4°C° 0 mm 3 mps 621 mmHg 89%
    18:00 -5°C° 0 mm 3 mps 621 mmHg 89%
    19:00 -5°C° 0 mm 3 mps 621 mmHg 88%
    20:00 -5°C° 0 mm 3 mps 621 mmHg 88%
    21:00 -6°C° 0 mm 3 mps 621 mmHg 88%
    22:00 -6°C° 0 mm 3 mps 621 mmHg 88%
    23:00 -6°C° 0 mm 3 mps 621 mmHg 87%

    22 November, Friday

    Time Temperature Precipitation Wind Pressure Humidity
    00:00 -6°C° 0 mm 3 mps 621 mmHg 87%
    01:00 -6°C° 0 mm 3 mps 621 mmHg 87%
    02:00 -6°C° 0 mm 3 mps 621 mmHg 86%
    03:00 -6°C° 0 mm 3 mps 621 mmHg 85%
    04:00 -6°C° 0 mm 3 mps 621 mmHg 84%
    05:00 -6°C° 0 mm 3 mps 621 mmHg 84%
    06:00 -6°C° 0 mm 3 mps 621 mmHg 84%
    07:00 -6°C° 0 mm 3 mps 621 mmHg 84%
    08:00 -4°C° 0 mm 3 mps 622 mmHg 83%
    09:00 -2°C° 0 mm 2 mps 622 mmHg 83%
    10:00 +1°C° 0 mm 2 mps 623 mmHg 82%
    11:00 0°C° 0 mm 3 mps 623 mmHg 83%
    12:00 +1°C° 0 mm 3 mps 623 mmHg 84%
    13:00 +2°C° 0 mm 3 mps 623 mmHg 85%
    14:00 +1°C° 0 mm 3 mps 622 mmHg 87%
    15:00 0°C° 0 mm 3 mps 622 mmHg 88%
    16:00 -1°C° 0 mm 3 mps 621 mmHg 90%
    17:00 -1°C° 0 mm 3 mps 621 mmHg 90%
    18:00 -2°C° 0 mm 3 mps 621 mmHg 89%
    19:00 -2°C° 0 mm 3 mps 621 mmHg 89%
    20:00 -2°C° 0 mm 3 mps 621 mmHg 89%
    21:00 -2°C° 0 mm 3 mps 621 mmHg 89%
    22:00 -2°C° 0 mm 3 mps 621 mmHg 88%
    23:00 -2°C° 0 mm 3 mps 621 mmHg 89%
    Show more